GW3147 Weather Reports


Display with metric or nautical units.
time (UTC)temp
F
wind
direction
speed
MPH
gust
MPH
rain 1hr
in
rain 24hr
in
rain mn
in
humidity
%
barometer
mb
20260506171537 61 0 1.0 6.0 0.01 0.01 0.01 83 1010.9
20260506170036 63 247 4.0 10.0 0.00 0.00 0.00 78 1011.0
20260506164541 65 212 2.0 10.0 0.00 0.00 0.00 73 1010.7
20260506163048 65 210 2.0 9.0 0.00 0.00 0.00 72 1010.5
20260506161541 65 214 3.0 14.0 0.00 0.00 0.00 71 1010.7
20260506160042 66 169 2.0 8.0 0.00 0.00 0.00 70 1011.0
20260506154540 66 205 3.0 10.0 0.00 0.00 0.00 69 1010.9
20260506153041 66 202 3.0 11.0 0.00 0.00 0.00 68 1011.0
20260506151542 67 214 1.0 5.0 0.00 0.00 0.00 68 1011.1
20260506150050 66 197 4.0 13.0 0.00 0.00 0.00 69 1011.2
20260506144558 66 256 2.0 9.0 0.00 0.00 0.00 71 1011.5
20260506143050 65 246 4.0 12.0 0.00 0.00 0.00 72 1011.4
20260506141536 64 283 2.0 8.0 0.00 0.00 0.00 74 1011.4
20260506140053 63 267 2.0 7.0 0.00 0.00 0.00 76 1011.4
20260506134541 63 266 2.0 7.0 0.00 0.00 0.00 77 1011.3
20260506133047 62 271 2.0 6.0 0.00 0.00 0.00 79 1011.3
20260506131545 61 271 2.0 6.0 0.00 0.00 0.00 81 1011.4
20260506130105 60 268 2.0 6.0 0.00 0.00 0.00 82 1011.7
20260506124537 60 268 1.0 8.0 0.00 0.00 0.00 83 1011.9
20260506123040 60 262 3.0 9.0 0.00 0.00 0.00 83 1011.8
20260506121551 59 207 3.0 7.0 0.00 0.00 0.00 84 1011.6
20260506120041 59 218 2.0 9.0 0.00 0.00 0.00 84 1011.7
20260506114537 58 229 1.0 8.0 0.00 0.00 0.00 85 1011.8
20260506113038 58 226 3.0 10.0 0.00 0.00 0.00 85 1011.5
20260506111542 57 222 3.0 7.0 0.00 0.00 0.00 86 1012.2
20260506110044 56 219 1.0 7.0 0.00 0.00 0.00 86 1012.0
20260506104548 56 219 3.0 5.0 0.00 0.00 0.00 87 1012.1
20260506103040 56 219 1.0 3.0 0.00 0.00 0.00 87 1012.0
20260506101537 55 219 2.0 5.0 0.00 0.00 0.00 88 1011.8
20260506100037 55 219 1.0 4.0 0.00 0.00 0.00 87 1011.8
20260506094544 55 219 1.0 4.0 0.00 0.00 0.00 87 1011.7
20260506093044 55 219 3.0 7.0 0.00 0.00 0.00 87 1011.9
20260506091541 56 218 2.0 10.0 0.00 0.00 0.00 86 1011.7
20260506090042 56 219 1.0 8.0 0.00 0.00 0.00 86 1011.7
20260506084540 56 219 2.0 4.0 0.00 0.00 0.00 86 1012.1
20260506083053 56 219 2.0 8.0 0.00 0.00 0.00 86 1011.9
20260506081557 56 221 1.0 5.0 0.00 0.00 0.00 85 1011.9
20260506073041 57 224 1.0 6.0 0.00 0.00 0.00 84 1012.0
20260506071539 57 224 2.0 5.0 0.00 0.00 0.00 83 1012.2
20260506061546 58 240 2.0 7.0 0.00 0.00 0.00 81 1011.9
20260506044548 61 240 2.0 10.0 0.00 0.00 0.00 74 1012.5
20260506043041 62 224 3.0 13.0 0.00 0.00 0.00 74 1012.4
20260506041537 62 262 2.0 9.0 0.00 0.00 0.00 72 1012.4
20260506040043 62 271 3.0 13.0 0.00 0.00 0.00 71 1012.5
20260506034559 61 257 3.0 10.0 0.00 0.00 0.00 71 1012.5
20260506033042 61 247 3.0 9.0 0.00 0.00 0.00 71 1012.6
20260506031549 61 219 2.0 7.0 0.00 0.00 0.00 71 1012.4
20260506030037 61 229 1.0 11.0 0.00 0.00 0.00 71 1012.5
20260506024536 60 236 1.0 5.0 0.00 0.00 0.00 72 1012.4
20260506023035 61 236 2.0 6.0 0.00 0.00 0.00 71 1012.4
20260506021541 60 236 1.0 6.0 0.00 0.00 0.00 71 1012.4
20260506020041 61 233 0.0 14.0 0.00 0.00 0.00 70 1012.4
20260506014541 61 236 2.0 8.0 0.00 0.00 0.00 69 1012.4
20260506013041 61 233 3.0 8.0 0.00 0.00 0.00 68 1012.2
20260506011541 62 223 2.0 8.0 0.00 0.00 0.00 67 1012.0
20260506010051 62 238 2.0 10.0 0.00 0.00 0.00 66 1011.8
20260506004541 63 233 2.0 8.0 0.00 0.00 0.00 65 1011.6
20260506003041 63 0 1.0 8.0 0.00 0.00 0.00 65 1011.4
20260506001545 64 224 1.0 5.0 0.00 0.00 0.00 64 1011.4
20260506000040 64 224 3.0 9.0 0.00 0.00 0.00 63 1011.0
20260505234536 65 229 2.0 12.0 0.00 0.00 0.00 62 1010.7
20260505233047 65 252 2.0 9.0 0.00 0.00 0.00 61 1010.4
20260505231535 66 243 3.0 9.0 0.00 0.00 0.00 60 1010.4
20260505230051 67 199 1.0 5.0 0.00 0.00 0.00 60 1010.2
20260505224544 68 199 1.0 6.0 0.00 0.00 0.00 58 1010.2
20260505223045 69 199 2.0 8.0 0.00 0.00 0.00 57 1010.0
20260505221534 69 210 3.0 9.0 0.00 0.00 0.00 56 1009.9
20260505220035 70 201 1.0 15.0 0.00 0.00 0.00 55 1009.8
20260505214541 71 205 2.0 7.0 0.00 0.00 0.00 54 1010.0
20260505213040 71 209 2.0 8.0 0.00 0.00 0.00 54 1009.7
20260505211546 72 209 4.0 11.0 0.00 0.00 0.00 52 1009.9
20260505210044 73 190 3.0 9.0 0.00 0.00 0.00 52 1009.8
20260505204541 73 163 4.0 13.0 0.00 0.00 0.00 49 1009.9
20260505203041 74 219 2.0 11.0 0.00 0.00 0.00 51 1009.8
20260505201550 74 221 5.0 16.0 0.00 0.00 0.00 49 1009.7
20260505200037 75 229 4.0 12.0 0.00 0.00 0.00 50 1009.6
20260505194536 76 155 3.0 10.0 0.00 0.00 0.00 46 1009.8
20260505193046 77 136 5.0 14.0 0.00 0.00 0.00 43 1009.7
20260505191548 77 163 4.0 11.0 0.00 0.00 0.00 42 1009.7
20260505190041 78 111 3.0 8.0 0.00 0.00 0.00 42 1009.8
20260505184544 78 178 6.0 14.0 0.00 0.00 0.00 42 1010.0
20260505183055 79 266 4.0 10.0 0.00 0.00 0.00 41 1010.0
20260505181535 79 261 3.0 10.0 0.00 0.00 0.00 43 1010.0
20260505180046 78 251 4.0 8.0 0.00 0.00 0.00 43 1010.1
20260505174541 80 250 2.0 6.0 0.00 0.00 0.00 42 1010.2
20260505173049 78 250 3.0 10.0 0.00 0.00 0.00 44 1010.4